Location: Warszawa
(52.2500°N, 21.0000°E)
Time: 23:50:23
(UTC+01:00)

A-11 Canister half - Pass Details

Date: 14 February 2023
Orbit: 1526 x 1682 km, 47.3° (Epoch: 22 March)

Event Time Altitude Azimuth Distance (km) Brightness Sun altitude
Exits shadow 06:05:07 - 267° (W) 3,876 10.5 -8.1°
Reaches altitude 10° 06:05:41 10° 267° (W) 3,695 10.4 -8.0°
Maximum altitude 06:14:48 64° 189° (S) 1,674 9.3 -6.6°
Drops below altitude 10° 06:24:02 10° 111° (ESE) 3,740 12.9 -5.2°
Sets 06:27:10 0° 108° (ESE) 4,741 14.6 -4.8°
